Location: Brusselsch Zeekanaal
(50.8667°N, 4.3667°E)
Time: 00:12:21
(UTC+00:00)

H-2A R/B - Pass Details

Date: 08 November 2025
Orbit: 728 x 830 km, 98.3° (Epoch: 04 December)

Event Time Altitude Azimuth Distance (km) Brightness Sun altitude
Rises 05:03:40 0° 3° (N) 3,229 5.2 -16.4°
Reaches altitude 10° 05:06:58 10° 340° (NNW) 2,279 4.2 -15.8°
Enters shadow 05:08:27 14° 323° (NW) 2,028 3.8 -15.6°
